QPF
0.00 0.00 0.00 0.00 0.00 0.00 0.00 0.00 0.00 0.00 0.00 0.00 0.00 0.00 0.00 0.00 0.00 0.00 0.00 0.01 0.01 0.01 0.01 0.01 0.02 0.03 0.04 0.05 0.03 0.02 0.02 0.01 0.00 0.00 0.01 0.02 0.01 0.00 0.00 0.00 0.00 0.00 0.00 0.00 0.00 0.00 0.00 0.00 0.00 0.00 0.00 0.00 0.00 0.00 0.00 0.00 0.00 0.00 0.00 0.00 0.00 0.00 0.00 0.00 0.00 0.00 0.00 0.00 0.00
0.00 0.00 0.00 0.00 0.00 0.00 0.00 0.00 0.00 0.00 0.00 0.00 0.00 0.00 0.00 0.00 0.00 0.00 0.00 0.01 0.01 0.01 0.01 0.02 0.02 0.03 0.04 0.04 0.03 0.03 0.02 0.00 0.00 0.01 0.01 0.01 0.00 0.00 0.00 0.00 0.00 0.00 0.00 0.00 0.00 0.00 0.00 0.00 0.00 0.00 0.00 0.00 0.00 0.00 0.00 0.00 0.00 0.00 0.00 0.00 0.00 0.00 0.00 0.00 0.00 0.00 0.00 0.00 0.00
0.00 0.00 0.00 0.00 0.00 0.00 0.00 0.00 0.00 0.00 0.00 0.00 0.00 0.00 0.00 0.00 0.00 0.00 0.01 0.01 0.01 0.01 0.01 0.03 0.03 0.04 0.05 0.04 0.04 0.03 0.01 0.01 0.01 0.01 0.01 0.01 0.01 0.00 0.00 0.00 0.00 0.00 0.00 0.00 0.00 0.00 0.00 0.00 0.00 0.00 0.00 0.00 0.00 0.00 0.00 0.00 0.00 0.00 0.00 0.00 0.00 0.00 0.00 0.00 0.00 0.00 0.00 0.00 0.00
0.00 0.00 0.00 0.00 0.00 0.00 0.00 0.00 0.00 0.00 0.00 0.00 0.00 0.00 0.00 0.00 0.00 0.00 0.00 0.00 0.00 0.01 0.01 0.02 0.04 0.04 0.04 0.03 0.04 0.03 0.01 0.01 0.01 0.02 0.02 0.02 0.01 0.00 0.00 0.00 0.00 0.00 0.00 0.00 0.00 0.00 0.00 0.00 0.00 0.00 0.00 0.00 0.00 0.00 0.00 0.00 0.00 0.00 0.00 0.00 0.00 0.00 0.00 0.00 0.00 0.00 0.00 0.00 0.00
0.00 0.00 0.00 0.00 0.00 0.00 0.00 0.00 0.00 0.00 0.00 0.00 0.00 0.00 0.00 0.00 0.00 0.00 0.00 0.00 0.00 0.01 0.01 0.04 0.04 0.04 0.04 0.05 0.05 0.03 0.01 0.01 0.02 0.02 0.02 0.01 0.01 0.00 0.00 0.00 0.00 0.00 0.00 0.00 0.00 0.00 0.00 0.00 0.00 0.00 0.00 0.00 0.00 0.00 0.00 0.00 0.00 0.00 0.00 0.00 0.00 0.00 0.00 0.00 0.00 0.00 0.00 0.00 0.00
0.00 0.00 0.00 0.00 0.00 0.00 0.00 0.00 0.00 0.00 0.00 0.00 0.00 0.00 0.00 0.00 0.00 0.00 0.00 0.00 0.00 0.01 0.02 0.05 0.04 0.04 0.04 0.04 0.03 0.02 0.02 0.02 0.01 0.01 0.02 0.01 0.00 0.00 0.00 0.00 0.00 0.00 0.00 0.00 0.00 0.00 0.00 0.00 0.00 0.00 0.00 0.00 0.00 0.00 0.00 0.00 0.00 0.00 0.00 0.00 0.00 0.00 0.00 0.00 0.00 0.00 0.00 0.00 0.00
0.00 0.00 0.00 0.00 0.00 0.00 0.00 0.00 0.00 0.00 0.00 0.00 0.00 0.00 0.00 0.00 0.00 0.00 0.00 0.01 0.01 0.03 0.04 0.04 0.02 0.01 0.02 0.02 0.03 0.02 0.02 0.02 0.02 0.01 0.01 0.01 0.01 0.00 0.00 0.00 0.00 0.00 0.00 0.00 0.00 0.00 0.00 0.00 0.00 0.00 0.00 0.00 0.00 0.00 0.00 0.00 0.00 0.00 0.00 0.00 0.00 0.00 0.00 0.00 0.00 0.00 0.00 0.00 0.00
0.00 0.00 0.00 0.00 0.00 0.00 0.00 0.00 0.00 0.00 0.00 0.00 0.00 0.00 0.00 0.00 0.00 0.00 0.01 0.03 0.04 0.04 0.03 0.03 0.02 0.02 0.02 0.03 0.03 0.02 0.02 0.02 0.02 0.01 0.01 0.00 0.00 0.00 0.00 0.00 0.00 0.00 0.00 0.00 0.00 0.00 0.00 0.00 0.00 0.00 0.00 0.00 0.00 0.00 0.00 0.00 0.00 0.00 0.00 0.00 0.00 0.00 0.00 0.00 0.00 0.00 0.00 0.00 0.00
0.00 0.00 0.00 0.00 0.01 0.01 0.01 0.00 0.00 0.00 0.00 0.00 0.00 0.00 0.00 0.00 0.00 0.01 0.02 0.04 0.03 0.03 0.03 0.03 0.04 0.05 0.04 0.03 0.02 0.02 0.02 0.01 0.01 0.00 0.00 0.00 0.01 0.00 0.00 0.00 0.00 0.00 0.00 0.00 0.00 0.00 0.00 0.00 0.00 0.00 0.00 0.00 0.00 0.00 0.00 0.00 0.00 0.00 0.00 0.00 0.00 0.00 0.00 0.00 0.00 0.00 0.00 0.00 0.00
0.00 0.00 0.01 0.01 0.02 0.02 0.02 0.01 0.01 0.00 0.00 0.00 0.00 0.00 0.00 0.00 0.01 0.03 0.04 0.04 0.02 0.02 0.01 0.02 0.03 0.04 0.03 0.02 0.02 0.02 0.02 0.01 0.01 0.00 0.01 0.01 0.01 0.01 0.00 0.00 0.00 0.00 0.00 0.00 0.00 0.00 0.00 0.00 0.00 0.00 0.00 0.00 0.00 0.00 0.00 0.00 0.00 0.00 0.00 0.00 0.00 0.00 0.00 0.00 0.00 0.00 0.00 0.00 0.00
0.00 0.02 0.03 0.03 0.03 0.02 0.02 0.01 0.01 0.00 0.00 0.00 0.00 0.00 0.00 0.00 0.02 0.03 0.04 0.03 0.01 0.01 0.01 0.01 0.02 0.03 0.03 0.02 0.02 0.02 0.02 0.01 0.00 0.00 0.01 0.01 0.01 0.00 0.00 0.00 0.00 0.00 0.00 0.00 0.00 0.00 0.00 0.00 0.00 0.00 0.00 0.00 0.00 0.00 0.00 0.00 0.00 0.00 0.00 0.00 0.00 0.00 0.00 0.00 0.00 0.00 0.00 0.00 0.00
0.02 0.04 0.05 0.05 0.04 0.03 0.02 0.02 0.01 0.00 0.00 0.00 0.00 0.00 0.00 0.00 0.01 0.03 0.03 0.01 0.01 0.00 0.01 0.01 0.03 0.04 0.03 0.03 0.03 0.02 0.02 0.02 0.01 0.01 0.01 0.00 0.00 0.00 0.00 0.00 0.00 0.00 0.00 0.00 0.00 0.00 0.00 0.00 0.00 0.00 0.00 0.00 0.00 0.00 0.00 0.00 0.00 0.00 0.00 0.00 0.00 0.00 0.00 0.00 0.00 0.00 0.00 0.00 0.00
0.04 0.05 0.06 0.05 0.04 0.03 0.02 0.02 0.01 0.00 0.00 0.00 0.00 0.00 0.00 0.00 0.01 0.03 0.03 0.01 0.01 0.01 0.01 0.01 0.03 0.04 0.05 0.04 0.03 0.03 0.02 0.02 0.01 0.01 0.00 0.00 0.00 0.00 0.00 0.00 0.00 0.00 0.00 0.00 0.00 0.00 0.00 0.00 0.00 0.00 0.00 0.00 0.00 0.00 0.00 0.00 0.00 0.00 0.00 0.00 0.00 0.00 0.00 0.00 0.00 0.00 0.00 0.00 0.00
0.06 0.06 0.06 0.05 0.04 0.03 0.03 0.02 0.01 0.01 0.00 0.00 0.00 0.00 0.00 0.01 0.01 0.02 0.02 0.01 0.01 0.01 0.01 0.02 0.03 0.04 0.04 0.04 0.03 0.02 0.01 0.01 0.01 0.00 0.00 0.00 0.00 0.00 0.00 0.00 0.00 0.00 0.00 0.00 0.00 0.00 0.00 0.00 0.00 0.00 0.00 0.00 0.00 0.00 0.00 0.00 0.00 0.00 0.00 0.00 0.00 0.00 0.00 0.00 0.00 0.00 0.00 0.00 0.00
0.08 0.07 0.06 0.05 0.04 0.03 0.02 0.02 0.01 0.00 0.00 0.00 0.00 0.00 0.01 0.01 0.01 0.02 0.03 0.02 0.02 0.01 0.02 0.03 0.04 0.04 0.03 0.03 0.02 0.02 0.01 0.01 0.01 0.01 0.01 0.01 0.01 0.00 0.00 0.00 0.00 0.00 0.00 0.00 0.00 0.00 0.00 0.00 0.00 0.00 0.00 0.00 0.00 0.00 0.00 0.00 0.00 0.00 0.00 0.00 0.00 0.00 0.00 0.00 0.00 0.00 0.00 0.00 0.00
0.08 0.07 0.05 0.04 0.03 0.02 0.01 0.01 0.00 0.00 0.00 0.00 0.00 0.01 0.01 0.00 0.00 0.02 0.03 0.02 0.02 0.02 0.02 0.03 0.03 0.03 0.03 0.02 0.02 0.01 0.01 0.01 0.01 0.01 0.01 0.01 0.00 0.00 0.00 0.00 0.00 0.00 0.00 0.00 0.00 0.00 0.00 0.00 0.00 0.00 0.00 0.00 0.00 0.00 0.00 0.00 0.00 0.00 0.00 0.00 0.00 0.00 0.00 0.00 0.00 0.00 0.00 0.00 0.00
0.07 0.05 0.04 0.03 0.02 0.01 0.01 0.00 0.00 0.00 0.00 0.00 0.00 0.01 0.01 0.00 0.00 0.02 0.03 0.02 0.02 0.02 0.02 0.02 0.03 0.02 0.02 0.02 0.01 0.01 0.01 0.01 0.01 0.01 0.01 0.00 0.00 0.00 0.00 0.00 0.00 0.00 0.00 0.00 0.00 0.00 0.00 0.00 0.00 0.00 0.00 0.00 0.00 0.00 0.00 0.00 0.00 0.00 0.00 0.00 0.00 0.00 0.00 0.00 0.00 0.00 0.00 0.00 0.00
0.05 0.04 0.03 0.02 0.01 0.01 0.00 0.00 0.00 0.00 0.00 0.00 0.01 0.01 0.01 0.01 0.02 0.02 0.02 0.02 0.02 0.02 0.02 0.03 0.02 0.02 0.02 0.01 0.01 0.01 0.01 0.01 0.01 0.01 0.01 0.00 0.00 0.00 0.00 0.00 0.00 0.00 0.00 0.00 0.00 0.00 0.00 0.00 0.00 0.00 0.00 0.00 0.00 0.00 0.00 0.00 0.00 0.00 0.00 0.00 0.00 0.00 0.00 0.00 0.00 0.00 0.00 0.00 0.00
0.04 0.03 0.02 0.01 0.01 0.00 0.00 0.00 0.00 0.00 0.00 0.01 0.02 0.02 0.02 0.02 0.02 0.02 0.02 0.02 0.02 0.02 0.02 0.02 0.02 0.01 0.01 0.01 0.01 0.01 0.01 0.01 0.01 0.01 0.01 0.00 0.00 0.00 0.00 0.00 0.00 0.00 0.00 0.00 0.00 0.00 0.00 0.00 0.00 0.00 0.00 0.00 0.00 0.00 0.00 0.00 0.00 0.00 0.00 0.00 0.00 0.00 0.00 0.00 0.00 0.00 0.00 0.00 0.00
0.03 0.02 0.01 0.01 0.00 0.00 0.00 0.00 0.00 0.00 0.01 0.02 0.02 0.02 0.02 0.02 0.02 0.02 0.02 0.02 0.02 0.02 0.02 0.02 0.01 0.01 0.01 0.01 0.01 0.00 0.00 0.01 0.01 0.01 0.01 0.00 0.00 0.00 0.00 0.00 0.00 0.00 0.00 0.00 0.00 0.00 0.00 0.00 0.00 0.00 0.00 0.00 0.00 0.00 0.00 0.00 0.00 0.00 0.00 0.00 0.00 0.00 0.00 0.00 0.00 0.00 0.00 0.00 0.00
0.02 0.01 0.00 0.00 0.00 0.00 0.00 0.00 0.00 0.00 0.01 0.02 0.02 0.02 0.01 0.02 0.02 0.02 0.02 0.01 0.02 0.02 0.01 0.01 0.00 0.00 0.00 0.00 0.00 0.01 0.01 0.01 0.01 0.01 0.00 0.00 0.00 0.00 0.00 0.00 0.00 0.00 0.00 0.00 0.00 0.00 0.00 0.00 0.00 0.00 0.00 0.00 0.00 0.00 0.00 0.00 0.00 0.00 0.00 0.00 0.00 0.00 0.00 0.00 0.00 0.00 0.00 0.00 0.00
0.01 0.00 0.00 0.00 0.00 0.00 0.00 0.00 0.00 0.01 0.01 0.01 0.01 0.01 0.01 0.01 0.01 0.01 0.01 0.01 0.01 0.01 0.00 0.00 0.00 0.00 0.00 0.00 0.01 0.01 0.01 0.01 0.01 0.00 0.00 0.00 0.00 0.00 0.00 0.00 0.00 0.00 0.00 0.00 0.00 0.00 0.00 0.00 0.00 0.00 0.00 0.00 0.00 0.00 0.00 0.00 0.00 0.00 0.00 0.00 0.00 0.00 0.00 0.00 0.00 0.00 0.00 0.00 0.00
0.00 0.00 0.00 0.00 0.00 0.00 0.00 0.00 0.00 0.00 0.00 0.00 0.00 0.00 0.00 0.01 0.01 0.01 0.01 0.01 0.00 0.00 0.00 0.00 0.00 0.01 0.01 0.01 0.01 0.01 0.01 0.00 0.00 0.00 0.00 0.00 0.00 0.00 0.00 0.00 0.00 0.00 0.00 0.00 0.00 0.00 0.00 0.00 0.00 0.00 0.00 0.00 0.00 0.00 0.00 0.00 0.00 0.00 0.00 0.00 0.00 0.00 0.00 0.00 0.00 0.00 0.00 0.00 0.00
0.00 0.00 0.00 0.00 0.00 0.00 0.00 0.00 0.00 0.00 0.00 0.01 0.01 0.01 0.01 0.01 0.01 0.01 0.00 0.00 0.00 0.00 0.00 0.00 0.01 0.01 0.01 0.01 0.01 0.01 0.00 0.00 0.00 0.00 0.00 0.00 0.00 0.00 0.00 0.00 0.00 0.00 0.00 0.00 0.00 0.00 0.00 0.00 0.00 0.00 0.00 0.00 0.00 0.00 0.00 0.00 0.00 0.00 0.00 0.00 0.00 0.00 0.00 0.00 0.00 0.00 0.00 0.00 0.00
0.00 0.00 0.00 0.00 0.00 0.00 0.00 0.00 0.01 0.01 0.01 0.02 0.02 0.02 0.01 0.01 0.00 0.00 0.00 0.00 0.00 0.00 0.00 0.01 0.01 0.01 0.01 0.01 0.01 0.01 0.00 0.00 0.00 0.00 0.00 0.00 0.00 0.00 0.00 0.00 0.00 0.00 0.00 0.00 0.00 0.00 0.00 0.00 0.00 0.00 0.00 0.00 0.00 0.00 0.00 0.00 0.00 0.00 0.00 0.00 0.00 0.00 0.00 0.00 0.00 0.00 0.00 0.00 0.00
0.01 0.01 0.00 0.00 0.00 0.00 0.00 0.00 0.01 0.01 0.01 0.01 0.01 0.01 0.01 0.00 0.00 0.00 0.00 0.00 0.00 0.00 0.01 0.01 0.01 0.01 0.01 0.01 0.01 0.00 0.00 0.00 0.00 0.00 0.00 0.00 0.00 0.00 0.00 0.00 0.00 0.00 0.00 0.00 0.00 0.00 0.00 0.00 0.00 0.00 0.00 0.00 0.00 0.00 0.00 0.00 0.00 0.00 0.00 0.00 0.00 0.00 0.00 0.00 0.00 0.00 0.00 0.00 0.00
0.01 0.00 0.00 0.00 0.00 0.01 0.01 0.01 0.02 0.02 0.01 0.01 0.01 0.01 0.01 0.01 0.01 0.01 0.01 0.01 0.01 0.01 0.01 0.01 0.01 0.02 0.01 0.01 0.00 0.00 0.00 0.00 0.00 0.00 0.00 0.00 0.00 0.00 0.00 0.00 0.00 0.00 0.00 0.00 0.00 0.00 0.00 0.00 0.00 0.00 0.00 0.00 0.00 0.00 0.00 0.00 0.00 0.00 0.00 0.00 0.00 0.00 0.00 0.00 0.00 0.00 0.00 0.00 0.00
0.00 0.00 0.01 0.01 0.01 0.01 0.01 0.01 0.01 0.01 0.01 0.01 0.01 0.01 0.01 0.01 0.01 0.01 0.01 0.01 0.01 0.01 0.01 0.01 0.01 0.01 0.00 0.00 0.00 0.00 0.00 0.00 0.00 0.00 0.00 0.00 0.00 0.00 0.00 0.00 0.00 0.00 0.00 0.00 0.00 0.00 0.00 0.00 0.00 0.00 0.00 0.00 0.00 0.00 0.00 0.00 0.00 0.00 0.00 0.00 0.00 0.00 0.00 0.00 0.00 0.00 0.00 0.00 0.00
0.00 0.01 0.01 0.01 0.01 0.01 0.01 0.00 0.01 0.01 0.01 0.01 0.01 0.01 0.01 0.01 0.01 0.01 0.01 0.00 0.01 0.01 0.01 0.01 0.00 0.00 0.00 0.00 0.00 0.00 0.00 0.00 0.00 0.00 0.00 0.00 0.00 0.00 0.00 0.00 0.00 0.00 0.00 0.00 0.00 0.00 0.00 0.00 0.00 0.00 0.00 0.00 0.00 0.00 0.00 0.00 0.00 0.00 0.00 0.00 0.00 0.00 0.00 0.00 0.00 0.00 0.00 0.00 0.00
0.01 0.01 0.00 0.00 0.00 0.01 0.01 0.01 0.01 0.01 0.01 0.00 0.00 0.00 0.00 0.00 0.00 0.01 0.01 0.01 0.01 0.01 0.00 0.00 0.00 0.00 0.00 0.00 0.00 0.00 0.00 0.00 0.00 0.00 0.00 0.00 0.00 0.00 0.00 0.00 0.00 0.00 0.00 0.00 0.00 0.00 0.00 0.00 0.00 0.00 0.00 0.00 0.00 0.00 0.00 0.00 0.00 0.00 0.00 0.00 0.00 0.00 0.00 0.00 0.00 0.00 0.00 0.00 0.00
0.04 0.02 0.01 0.01 0.01 0.01 0.00 0.00 0.01 0.00 0.00 0.00 0.00 0.01 0.01 0.01 0.01 0.01 0.01 0.01 0.00 0.00 0.00 0.00 0.00 0.00 0.00 0.00 0.00 0.00 0.00 0.00 0.00 0.00 0.00 0.00 0.00 0.00 0.00 0.00 0.00 0.00 0.00 0.00 0.00 0.00 0.00 0.00 0.00 0.00 0.00 0.00 0.00 0.00 0.00 0.00 0.00 0.00 0.00 0.00 0.00 0.00 0.00 0.00 0.00 0.00 0.00 0.00 0.00
0.19 0.12 0.07 0.04 0.02 0.01 0.01 0.01 0.00 0.00 0.00 0.00 0.01 0.01 0.01 0.01 0.01 0.00 0.00 0.00 0.00 0.00 0.00 0.00 0.00 0.00 0.00 0.00 0.00 0.00 0.00 0.00 0.00 0.00 0.00 0.00 0.00 0.00 0.00 0.00 0.00 0.00 0.00 0.00 0.00 0.00 0.00 0.00 0.00 0.00 0.00 0.00 0.00 0.00 0.00 0.00 0.00 0.00 0.00 0.00 0.00 0.00 0.00 0.00 0.00 0.00 0.00 0.00 0.00
0.34 0.27 0.18 0.10 0.06 0.04 0.02 0.02 0.01 0.01 0.01 0.01 0.01 0.00 0.00 0.00 0.00 0.00 0.00 0.00 0.00 0.00 0.00 0.00 0.00 0.00 0.00 0.00 0.00 0.00 0.00 0.00 0.00 0.00 0.00 0.00 0.00 0.00 0.00 0.00 0.00 0.00 0.00 0.00 0.00 0.00 0.00 0.00 0.00 0.00 0.00 0.00 0.00 0.00 0.00 0.00 0.00 0.00 0.00 0.00 0.00 0.00 0.00 0.00 0.00 0.00 0.00 0.00 0.00
0.43 0.38 0.30 0.21 0.13 0.08 0.04 0.02 0.01 0.00 0.00 0.00 0.00 0.00 0.00 0.00 0.00 0.00 0.00 0.00 0.00 0.00 0.00 0.00 0.00 0.00 0.00 0.00 0.00 0.00 0.00 0.00 0.00 0.00 0.00 0.00 0.00 0.00 0.00 0.00 0.00 0.00 0.00 0.00 0.00 0.00 0.00 0.00 0.00 0.00 0.00 0.00 0.00 0.00 0.00 0.00 0.00 0.00 0.00 0.00 0.00 0.00 0.00 0.00 0.00 0.00 0.00 0.00 0.00
0.42 0.41 0.37 0.30 0.23 0.16 0.09 0.05 0.02 0.01 0.01 0.00 0.00 0.00 0.00 0.00 0.00 0.00 0.00 0.00 0.00 0.00 0.00 0.00 0.00 0.00 0.00 0.00 0.00 0.00 0.00 0.00 0.00 0.00 0.00 0.00 0.00 0.00 0.00 0.00 0.00 0.00 0.00 0.00 0.00 0.00 0.00 0.00 0.00 0.00 0.00 0.00 0.00 0.00 0.00 0.00 0.00 0.00 0.00 0.00 0.00 0.00 0.00 0.00 0.00 0.00 0.00 0.00 0.00
0.22 0.28 0.31 0.30 0.25 0.19 0.12 0.06 0.02 0.01 0.00 0.00 0.00 0.00 0.00 0.00 0.00 0.00 0.00 0.00 0.00 0.00 0.00 0.00 0.00 0.00 0.00 0.00 0.00 0.00 0.00 0.00 0.00 0.00 0.00 0.00 0.00 0.00 0.00 0.00 0.00 0.00 0.00 0.00 0.00 0.00 0.00 0.00 0.00 0.00 0.00 0.00 0.00 0.00 0.00 0.00 0.00 0.00 0.00 0.00 0.00 0.00 0.00 0.00 0.00 0.00 0.00 0.00 0.00
0.07 0.10 0.14 0.17 0.15 0.12 0.07 0.01 0.00 0.00 0.00 0.00 0.00 0.00 0.00 0.00 0.00 0.00 0.00 0.00 0.00 0.00 0.00 0.00 0.00 0.00 0.00 0.00 0.00 0.00 0.00 0.00 0.00 0.00 0.00 0.00 0.00 0.00 0.00 0.00 0.00 0.00 0.00 0.00 0.00 0.00 0.00 0.00 0.00 0.00 0.00 0.00 0.00 0.00 0.00 0.00 0.00 0.00 0.00 0.00 0.00 0.00 0.00 0.00 0.00 0.00 0.00 0.00 0.00
0.03 0.04 0.04 0.06 0.05 0.04 0.02 0.00 0.00 0.00 0.00 0.00 0.00 0.00 0.00 0.00 0.00 0.00 0.00 0.00 0.00 0.00 0.00 0.00 0.00 0.00 0.00 0.00 0.00 0.00 0.00 0.00 0.00 0.00 0.00 0.00 0.00 0.00 0.00 0.00 0.00 0.00 0.00 0.00 0.00 0.00 0.00 0.00 0.00 0.00 0.00 0.00 0.00 0.00 0.00 0.00 0.00 0.00 0.00 0.00 0.00 0.00 0.00 0.00 0.00 0.00 0.00 0.00 0.00
0.04 0.04 0.04 0.05 0.04 0.02 0.01 0.00 0.00 0.00 0.00 0.00 0.00 0.00 0.00 0.00 0.00 0.00 0.00 0.00 0.00 0.00 0.00 0.00 0.00 0.00 0.00 0.00 0.00 0.00 0.00 0.00 0.00 0.00 0.00 0.00 0.00 0.00 0.00 0.00 0.00 0.00 0.00 0.00 0.00 0.00 0.00 0.00 0.00 0.00 0.00 0.00 0.00 0.00 0.00 0.00 0.00 0.00 0.00 0.00 0.00 0.00 0.00 0.00 0.00 0.00 0.00 0.00 0.00
0.06 0.07 0.06 0.06 0.04 0.03 0.02 0.01 0.01 0.00 0.00 0.00 0.00 0.00 0.00 0.00 0.00 0.00 0.00 0.00 0.00 0.00 0.00 0.00 0.00 0.00 0.00 0.00 0.00 0.00 0.00 0.00 0.00 0.00 0.00 0.00 0.00 0.00 0.00 0.00 0.00 0.00 0.00 0.00 0.00 0.00 0.00 0.00 0.00 0.00 0.00 0.00 0.00 0.00 0.00 0.00 0.00 0.00 0.00 0.00 0.00 0.00 0.00 0.00 0.00 0.00 0.00 0.00 0.00
0.08 0.08 0.07 0.06 0.04 0.03 0.02 0.01 0.00 0.00 0.00 0.00 0.00 0.00 0.00 0.00 0.00 0.00 0.00 0.00 0.00 0.00 0.00 0.00 0.00 0.00 0.00 0.00 0.00 0.00 0.00 0.00 0.00 0.00 0.00 0.00 0.00 0.00 0.00 0.00 0.00 0.00 0.00 0.00 0.00 0.00 0.00 0.00 0.00 0.00 0.00 0.00 0.00 0.00 0.00 0.00 0.00 0.00 0.00 0.00 0.00 0.00 0.00 0.00 0.00 0.00 0.00 0.00 0.00
MSLP
1009.10 1009.10 1009.22 1009.46 1009.74 1010.06 1010.34 1010.62 1010.82 1011.02 1011.22 1011.46 1011.74 1012.02 1012.30 1012.54 1012.82 1013.06 1013.30 1013.54 1013.70 1013.86 1013.98 1014.10 1014.22 1014.42 1014.58 1014.74 1014.98 1015.34 1015.70 1015.90 1016.02 1016.06 1016.18 1016.38 1016.66 1016.94 1017.18 1017.38 1017.58 1017.82 1018.02 1018.18 1018.26 1018.30 1018.42 1018.50 1018.70 1018.86 1019.02 1019.18 1019.34 1019.50 1019.66 1019.74 1019.82 1019.94 1020.06 1020.26 1020.38 1020.54 1020.70 1020.86 1021.02 1021.10 1021.18 1021.30 1021.30
1009.14 1009.10 1009.18 1009.38 1009.70 1010.02 1010.30 1010.58 1010.78 1011.02 1011.26 1011.46 1011.62 1011.94 1012.26 1012.46 1012.74 1012.98 1013.30 1013.58 1013.74 1013.90 1014.02 1014.22 1014.42 1014.58 1014.74 1014.90 1015.10 1015.42 1015.70 1015.90 1015.98 1016.06 1016.22 1016.42 1016.70 1016.98 1017.22 1017.46 1017.62 1017.86 1018.02 1018.18 1018.30 1018.34 1018.42 1018.54 1018.74 1018.90 1019.10 1019.26 1019.42 1019.58 1019.66 1019.74 1019.78 1019.90 1020.10 1020.30 1020.42 1020.50 1020.66 1020.82 1020.94 1021.02 1021.14 1021.22 1021.30
1009.14 1009.14 1009.18 1009.34 1009.62 1009.90 1010.22 1010.50 1010.74 1010.98 1011.22 1011.46 1011.70 1011.98 1012.22 1012.46 1012.74 1013.02 1013.30 1013.58 1013.74 1013.98 1014.18 1014.42 1014.62 1014.78 1014.94 1015.18 1015.38 1015.58 1015.78 1015.90 1015.94 1016.06 1016.26 1016.54 1016.82 1017.10 1017.30 1017.50 1017.74 1017.94 1018.10 1018.22 1018.30 1018.30 1018.38 1018.50 1018.66 1018.90 1019.10 1019.30 1019.46 1019.62 1019.74 1019.78 1019.82 1019.94 1020.14 1020.30 1020.42 1020.50 1020.62 1020.74 1020.90 1021.02 1021.10 1021.18 1021.30
1009.14 1009.14 1009.18 1009.26 1009.46 1009.70 1009.94 1010.22 1010.58 1010.86 1011.10 1011.38 1011.70 1012.02 1012.26 1012.50 1012.74 1013.02 1013.30 1013.58 1013.90 1014.18 1014.38 1014.58 1014.74 1014.98 1015.18 1015.42 1015.62 1015.82 1015.94 1016.02 1015.98 1016.14 1016.46 1016.74 1017.02 1017.22 1017.38 1017.58 1017.86 1018.02 1018.18 1018.30 1018.30 1018.34 1018.38 1018.50 1018.66 1018.90 1019.14 1019.34 1019.54 1019.70 1019.78 1019.86 1019.90 1019.98 1020.14 1020.30 1020.38 1020.46 1020.62 1020.74 1020.86 1020.90 1021.02 1021.18 1021.26
1009.14 1009.14 1009.10 1009.22 1009.34 1009.54 1009.74 1010.02 1010.34 1010.70 1011.02 1011.30 1011.62 1011.98 1012.30 1012.50 1012.74 1013.02 1013.30 1013.66 1013.98 1014.22 1014.46 1014.70 1014.90 1015.14 1015.34 1015.62 1015.82 1015.98 1016.06 1016.14 1016.18 1016.30 1016.62 1016.98 1017.22 1017.34 1017.50 1017.74 1017.94 1018.18 1018.30 1018.34 1018.38 1018.38 1018.42 1018.54 1018.74 1018.98 1019.18 1019.42 1019.54 1019.70 1019.78 1019.86 1019.90 1020.02 1020.18 1020.30 1020.34 1020.46 1020.58 1020.74 1020.82 1020.90 1020.98 1021.10 1021.18
1009.06 1009.18 1009.22 1009.30 1009.42 1009.58 1009.74 1010.02 1010.30 1010.58 1010.86 1011.18 1011.54 1011.90 1012.18 1012.46 1012.70 1013.02 1013.30 1013.62 1013.98 1014.30 1014.58 1014.78 1014.98 1015.26 1015.54 1015.78 1015.94 1016.06 1016.14 1016.18 1016.30 1016.50 1016.86 1017.22 1017.42 1017.54 1017.66 1017.86 1018.06 1018.22 1018.34 1018.42 1018.46 1018.46 1018.50 1018.62 1018.82 1019.06 1019.30 1019.46 1019.62 1019.74 1019.78 1019.86 1019.94 1020.06 1020.22 1020.30 1020.34 1020.46 1020.54 1020.66 1020.78 1020.90 1020.98 1021.10 1021.18
1008.90 1009.14 1009.30 1009.46 1009.58 1009.66 1009.82 1010.02 1010.26 1010.50 1010.78 1011.18 1011.46 1011.74 1012.02 1012.30 1012.58 1012.90 1013.30 1013.66 1014.06 1014.38 1014.62 1014.86 1015.02 1015.30 1015.58 1015.78 1015.94 1016.06 1016.18 1016.30 1016.42 1016.74 1017.10 1017.46 1017.54 1017.58 1017.74 1017.94 1018.14 1018.30 1018.42 1018.46 1018.46 1018.54 1018.62 1018.70 1018.90 1019.18 1019.38 1019.54 1019.70 1019.82 1019.90 1019.90 1019.98 1020.10 1020.26 1020.38 1020.42 1020.46 1020.58 1020.66 1020.74 1020.86 1020.94 1021.14 1021.22
1008.86 1009.10 1009.30 1009.46 1009.58 1009.74 1009.90 1010.02 1010.18 1010.46 1010.78 1011.14 1011.46 1011.66 1011.90 1012.18 1012.50 1012.90 1013.30 1013.74 1014.10 1014.42 1014.62 1014.86 1015.06 1015.30 1015.50 1015.66 1015.86 1016.02 1016.14 1016.30 1016.54 1016.90 1017.26 1017.50 1017.58 1017.66 1017.78 1018.02 1018.22 1018.34 1018.46 1018.46 1018.50 1018.62 1018.70 1018.78 1018.98 1019.22 1019.46 1019.58 1019.74 1019.86 1019.90 1019.94 1020.02 1020.14 1020.30 1020.46 1020.46 1020.50 1020.58 1020.66 1020.74 1020.82 1020.90 1021.06 1021.18
1008.86 1009.06 1009.30 1009.46 1009.74 1009.94 1010.02 1010.14 1010.22 1010.42 1010.74 1011.10 1011.42 1011.66 1011.90 1012.18 1012.54 1012.94 1013.38 1013.78 1014.10 1014.34 1014.62 1014.90 1015.10 1015.26 1015.38 1015.58 1015.74 1015.90 1016.18 1016.38 1016.62 1016.94 1017.22 1017.34 1017.46 1017.66 1017.86 1018.06 1018.22 1018.38 1018.46 1018.46 1018.54 1018.62 1018.74 1018.90 1019.10 1019.30 1019.46 1019.62 1019.78 1019.90 1019.94 1019.98 1020.06 1020.18 1020.30 1020.46 1020.50 1020.58 1020.62 1020.70 1020.74 1020.86 1020.94 1021.02 1021.18
1008.78 1009.02 1009.30 1009.58 1009.90 1010.06 1010.22 1010.34 1010.42 1010.54 1010.78 1011.10 1011.46 1011.74 1011.98 1012.26 1012.62 1013.02 1013.46 1013.78 1014.06 1014.34 1014.66 1014.90 1015.10 1015.26 1015.34 1015.54 1015.74 1016.06 1016.34 1016.58 1016.74 1016.98 1017.14 1017.22 1017.38 1017.58 1017.86 1018.06 1018.26 1018.38 1018.46 1018.50 1018.54 1018.66 1018.82 1019.02 1019.22 1019.42 1019.58 1019.66 1019.82 1019.94 1020.02 1020.02 1020.10 1020.22 1020.30 1020.38 1020.46 1020.54 1020.62 1020.70 1020.78 1020.86 1020.90 1021.02 1021.10
1008.66 1008.98 1009.30 1009.58 1009.90 1010.14 1010.34 1010.58 1010.70 1010.78 1010.94 1011.22 1011.54 1011.82 1012.10 1012.42 1012.82 1013.18 1013.54 1013.82 1014.10 1014.42 1014.70 1014.90 1015.18 1015.34 1015.46 1015.66 1015.94 1016.26 1016.50 1016.70 1016.86 1016.98 1017.10 1017.22 1017.38 1017.62 1017.90 1018.14 1018.30 1018.46 1018.50 1018.54 1018.62 1018.74 1018.90 1019.14 1019.34 1019.54 1019.66 1019.78 1019.90 1020.02 1020.06 1020.06 1020.14 1020.22 1020.30 1020.38 1020.46 1020.54 1020.62 1020.70 1020.74 1020.82 1020.90 1020.98 1021.06
1008.66 1008.98 1009.30 1009.58 1009.90 1010.18 1010.38 1010.62 1010.82 1010.90 1011.06 1011.34 1011.62 1011.94 1012.26 1012.62 1013.02 1013.38 1013.66 1013.90 1014.22 1014.54 1014.82 1015.10 1015.38 1015.58 1015.74 1015.90 1016.18 1016.42 1016.62 1016.78 1016.90 1017.02 1017.18 1017.30 1017.54 1017.78 1018.06 1018.30 1018.46 1018.54 1018.58 1018.62 1018.66 1018.82 1019.02 1019.22 1019.42 1019.62 1019.78 1019.90 1020.02 1020.06 1020.14 1020.18 1020.22 1020.30 1020.34 1020.46 1020.50 1020.62 1020.66 1020.74 1020.78 1020.86 1020.90 1020.98 1021.02
1008.74 1009.06 1009.42 1009.74 1010.02 1010.30 1010.50 1010.70 1010.90 1011.02 1011.18 1011.46 1011.74 1012.10 1012.46 1012.90 1013.26 1013.54 1013.78 1014.06 1014.38 1014.74 1015.02 1015.34 1015.62 1015.86 1016.02 1016.22 1016.42 1016.62 1016.74 1016.90 1017.02 1017.14 1017.30 1017.54 1017.74 1018.02 1018.34 1018.58 1018.62 1018.66 1018.66 1018.70 1018.74 1018.90 1019.10 1019.30 1019.50 1019.74 1019.90 1020.06 1020.14 1020.18 1020.18 1020.22 1020.30 1020.34 1020.46 1020.54 1020.62 1020.66 1020.74 1020.74 1020.78 1020.86 1020.90 1020.98 1021.02
1008.90 1009.22 1009.54 1009.90 1010.18 1010.46 1010.70 1010.90 1011.02 1011.18 1011.38 1011.62 1011.90 1012.30 1012.74 1013.14 1013.46 1013.74 1013.98 1014.26 1014.54 1014.90 1015.22 1015.50 1015.74 1016.02 1016.22 1016.38 1016.58 1016.70 1016.82 1016.98 1017.18 1017.30 1017.54 1017.78 1018.02 1018.34 1018.62 1018.78 1018.78 1018.74 1018.74 1018.78 1018.90 1019.02 1019.18 1019.42 1019.58 1019.78 1019.94 1020.10 1020.18 1020.22 1020.26 1020.30 1020.34 1020.38 1020.46 1020.58 1020.62 1020.70 1020.74 1020.78 1020.82 1020.86 1020.90 1020.98 1021.02
1009.18 1009.46 1009.74 1010.02 1010.30 1010.62 1010.90 1011.06 1011.22 1011.38 1011.58 1011.86 1012.18 1012.54 1012.94 1013.30 1013.62 1013.90 1014.14 1014.38 1014.62 1014.94 1015.26 1015.58 1015.78 1016.02 1016.18 1016.38 1016.58 1016.74 1016.86 1017.06 1017.30 1017.54 1017.82 1018.10 1018.38 1018.62 1018.86 1018.90 1018.90 1018.86 1018.86 1018.90 1018.98 1019.14 1019.30 1019.50 1019.66 1019.82 1019.98 1020.10 1020.18 1020.26 1020.30 1020.30 1020.38 1020.42 1020.46 1020.58 1020.62 1020.70 1020.74 1020.74 1020.78 1020.82 1020.90 1020.90 1020.98
1009.42 1009.70 1009.94 1010.18 1010.46 1010.70 1010.94 1011.18 1011.34 1011.58 1011.78 1012.06 1012.38 1012.74 1013.06 1013.42 1013.74 1013.98 1014.18 1014.42 1014.70 1014.98 1015.26 1015.54 1015.74 1015.98 1016.22 1016.46 1016.62 1016.74 1016.98 1017.22 1017.46 1017.74 1018.02 1018.38 1018.62 1018.86 1018.94 1018.98 1018.94 1018.90 1018.90 1018.94 1019.10 1019.30 1019.46 1019.58 1019.74 1019.86 1019.98 1020.10 1020.18 1020.26 1020.30 1020.34 1020.38 1020.42 1020.46 1020.50 1020.58 1020.62 1020.66 1020.70 1020.74 1020.74 1020.78 1020.86 1020.90
1009.54 1009.86 1010.10 1010.30 1010.50 1010.74 1011.02 1011.18 1011.46 1011.70 1011.98 1012.22 1012.54 1012.90 1013.18 1013.46 1013.78 1014.02 1014.26 1014.46 1014.74 1015.06 1015.30 1015.58 1015.82 1016.02 1016.30 1016.50 1016.70 1016.90 1017.10 1017.34 1017.58 1017.90 1018.22 1018.54 1018.74 1018.90 1019.02 1019.02 1018.98 1018.94 1018.94 1019.06 1019.26 1019.46 1019.62 1019.74 1019.86 1019.94 1020.02 1020.10 1020.18 1020.30 1020.30 1020.34 1020.38 1020.42 1020.46 1020.46 1020.50 1020.54 1020.58 1020.58 1020.62 1020.66 1020.74 1020.74 1020.78
1009.58 1009.90 1010.18 1010.38 1010.58 1010.78 1011.02 1011.26 1011.54 1011.82 1012.10 1012.38 1012.70 1013.02 1013.30 1013.58 1013.86 1014.10 1014.34 1014.62 1014.90 1015.18 1015.46 1015.70 1015.94 1016.18 1016.38 1016.62 1016.78 1016.98 1017.18 1017.42 1017.74 1018.10 1018.38 1018.58 1018.74 1018.90 1019.02 1019.02 1018.98 1018.98 1019.02 1019.18 1019.42 1019.62 1019.78 1019.90 1019.98 1020.02 1020.10 1020.18 1020.26 1020.30 1020.30 1020.34 1020.38 1020.42 1020.46 1020.46 1020.46 1020.50 1020.50 1020.54 1020.58 1020.62 1020.62 1020.66 1020.66
1009.62 1009.94 1010.22 1010.46 1010.70 1010.90 1011.14 1011.38 1011.66 1011.94 1012.26 1012.54 1012.86 1013.18 1013.46 1013.70 1013.94 1014.18 1014.46 1014.78 1015.10 1015.34 1015.58 1015.86 1016.06 1016.30 1016.46 1016.62 1016.86 1017.02 1017.26 1017.54 1017.90 1018.22 1018.46 1018.62 1018.74 1018.90 1018.98 1018.98 1018.98 1019.02 1019.14 1019.34 1019.58 1019.74 1019.90 1019.98 1020.02 1020.10 1020.18 1020.18 1020.26 1020.30 1020.34 1020.38 1020.42 1020.42 1020.46 1020.46 1020.50 1020.50 1020.54 1020.58 1020.62 1020.62 1020.62 1020.62 1020.62
1009.70 1009.98 1010.30 1010.54 1010.78 1011.02 1011.30 1011.58 1011.86 1012.18 1012.46 1012.74 1013.02 1013.34 1013.62 1013.90 1014.14 1014.34 1014.62 1014.94 1015.30 1015.58 1015.78 1015.94 1016.18 1016.38 1016.58 1016.74 1016.94 1017.18 1017.46 1017.74 1018.06 1018.30 1018.46 1018.62 1018.78 1018.90 1018.90 1018.90 1018.98 1019.10 1019.30 1019.50 1019.70 1019.86 1019.98 1020.02 1020.10 1020.14 1020.18 1020.22 1020.30 1020.34 1020.42 1020.42 1020.46 1020.46 1020.46 1020.50 1020.58 1020.62 1020.62 1020.62 1020.62 1020.66 1020.62 1020.62 1020.62
1009.86 1010.10 1010.38 1010.66 1010.90 1011.18 1011.46 1011.78 1012.10 1012.42 1012.70 1012.98 1013.30 1013.58 1013.86 1014.14 1014.34 1014.58 1014.86 1015.14 1015.46 1015.74 1015.90 1016.06 1016.26 1016.46 1016.70 1016.90 1017.14 1017.46 1017.74 1017.98 1018.22 1018.38 1018.50 1018.62 1018.78 1018.86 1018.86 1018.90 1019.02 1019.22 1019.46 1019.66 1019.82 1019.90 1020.02 1020.06 1020.18 1020.18 1020.22 1020.26 1020.30 1020.38 1020.42 1020.46 1020.46 1020.50 1020.54 1020.54 1020.58 1020.62 1020.66 1020.66 1020.70 1020.66 1020.66 1020.66 1020.62
1010.02 1010.26 1010.50 1010.82 1011.10 1011.42 1011.74 1012.02 1012.30 1012.62 1012.90 1013.22 1013.54 1013.82 1014.06 1014.34 1014.58 1014.82 1015.10 1015.38 1015.66 1015.90 1016.10 1016.26 1016.46 1016.62 1016.82 1017.06 1017.34 1017.66 1017.94 1018.18 1018.34 1018.46 1018.54 1018.66 1018.74 1018.78 1018.82 1018.90 1019.06 1019.30 1019.58 1019.82 1019.94 1020.02 1020.10 1020.14 1020.18 1020.22 1020.26 1020.30 1020.34 1020.38 1020.42 1020.46 1020.50 1020.54 1020.58 1020.62 1020.62 1020.66 1020.66 1020.66 1020.66 1020.66 1020.62 1020.62 1020.62
1010.18 1010.42 1010.70 1011.02 1011.34 1011.66 1011.98 1012.26 1012.58 1012.86 1013.18 1013.50 1013.78 1014.06 1014.30 1014.58 1014.82 1015.10 1015.38 1015.66 1015.90 1016.10 1016.30 1016.46 1016.62 1016.82 1017.02 1017.26 1017.50 1017.82 1018.14 1018.34 1018.46 1018.58 1018.62 1018.62 1018.70 1018.74 1018.82 1019.02 1019.22 1019.50 1019.74 1019.90 1020.02 1020.06 1020.14 1020.18 1020.18 1020.26 1020.30 1020.30 1020.34 1020.42 1020.46 1020.50 1020.54 1020.58 1020.62 1020.66 1020.70 1020.66 1020.70 1020.70 1020.62 1020.62 1020.62 1020.58 1020.58
1010.34 1010.62 1010.94 1011.30 1011.62 1011.90 1012.18 1012.50 1012.78 1013.10 1013.42 1013.74 1014.02 1014.30 1014.54 1014.82 1015.10 1015.38 1015.66 1015.90 1016.06 1016.30 1016.50 1016.74 1016.90 1017.10 1017.30 1017.50 1017.74 1017.98 1018.22 1018.42 1018.54 1018.62 1018.62 1018.62 1018.66 1018.78 1018.98 1019.18 1019.42 1019.62 1019.82 1019.94 1020.02 1020.06 1020.14 1020.18 1020.22 1020.26 1020.30 1020.30 1020.38 1020.42 1020.46 1020.54 1020.62 1020.62 1020.70 1020.74 1020.74 1020.74 1020.74 1020.70 1020.62 1020.62 1020.58 1020.54 1020.50
1010.58 1010.90 1011.22 1011.54 1011.82 1012.14 1012.46 1012.74 1013.02 1013.34 1013.66 1013.94 1014.22 1014.50 1014.82 1015.10 1015.34 1015.58 1015.82 1016.02 1016.26 1016.50 1016.74 1016.98 1017.22 1017.42 1017.58 1017.78 1017.98 1018.14 1018.30 1018.42 1018.46 1018.50 1018.54 1018.62 1018.70 1018.90 1019.14 1019.34 1019.54 1019.74 1019.86 1019.90 1019.90 1019.90 1019.98 1020.06 1020.14 1020.18 1020.26 1020.30 1020.38 1020.46 1020.46 1020.58 1020.62 1020.70 1020.74 1020.78 1020.82 1020.78 1020.74 1020.74 1020.66 1020.62 1020.58 1020.54 1020.50
1010.90 1011.18 1011.50 1011.78 1012.06 1012.38 1012.70 1013.02 1013.30 1013.58 1013.90 1014.18 1014.46 1014.78 1015.06 1015.30 1015.54 1015.74 1015.98 1016.22 1016.46 1016.74 1016.98 1017.22 1017.46 1017.70 1017.90 1018.06 1018.18 1018.30 1018.34 1018.38 1018.34 1018.34 1018.42 1018.62 1018.82 1019.02 1019.26 1019.46 1019.62 1019.78 1019.86 1019.86 1019.86 1019.90 1019.90 1019.98 1020.02 1020.14 1020.22 1020.34 1020.42 1020.46 1020.54 1020.62 1020.70 1020.74 1020.78 1020.82 1020.86 1020.86 1020.86 1020.82 1020.74 1020.66 1020.62 1020.58 1020.54
1011.18 1011.46 1011.78 1012.06 1012.34 1012.70 1013.02 1013.30 1013.54 1013.82 1014.14 1014.46 1014.82 1015.06 1015.30 1015.50 1015.74 1015.98 1016.18 1016.42 1016.66 1016.90 1017.14 1017.46 1017.74 1017.98 1018.14 1018.22 1018.26 1018.30 1018.38 1018.34 1018.30 1018.34 1018.46 1018.66 1018.90 1019.18 1019.38 1019.58 1019.70 1019.82 1019.86 1019.82 1019.82 1019.90 1019.94 1019.98 1020.02 1020.14 1020.22 1020.38 1020.46 1020.54 1020.62 1020.70 1020.74 1020.78 1020.82 1020.86 1020.86 1020.86 1020.90 1020.90 1020.82 1020.74 1020.70 1020.62 1020.54
1011.50 1011.78 1012.06 1012.38 1012.70 1013.02 1013.30 1013.50 1013.78 1014.10 1014.46 1014.74 1015.06 1015.30 1015.54 1015.74 1016.02 1016.22 1016.46 1016.62 1016.82 1017.06 1017.38 1017.70 1017.94 1018.14 1018.18 1018.26 1018.30 1018.30 1018.30 1018.30 1018.34 1018.46 1018.58 1018.78 1019.02 1019.26 1019.46 1019.58 1019.74 1019.78 1019.78 1019.82 1019.86 1019.90 1020.02 1020.06 1020.10 1020.14 1020.18 1020.30 1020.46 1020.62 1020.66 1020.74 1020.74 1020.82 1020.86 1020.86 1020.90 1020.90 1020.90 1020.86 1020.78 1020.74 1020.74 1020.70 1020.62
1011.86 1012.14 1012.42 1012.74 1013.02 1013.30 1013.54 1013.82 1014.10 1014.42 1014.70 1015.02 1015.26 1015.50 1015.74 1016.02 1016.22 1016.46 1016.66 1016.86 1017.06 1017.34 1017.62 1017.90 1018.06 1018.18 1018.30 1018.34 1018.38 1018.34 1018.30 1018.38 1018.46 1018.54 1018.74 1018.90 1019.14 1019.30 1019.46 1019.58 1019.70 1019.74 1019.78 1019.82 1019.90 1019.94 1020.02 1020.10 1020.14 1020.18 1020.18 1020.30 1020.46 1020.62 1020.70 1020.74 1020.78 1020.82 1020.82 1020.86 1020.82 1020.82 1020.82 1020.78 1020.74 1020.70 1020.70 1020.66 1020.62
1012.22 1012.50 1012.78 1013.06 1013.30 1013.58 1013.86 1014.14 1014.46 1014.74 1015.02 1015.22 1015.46 1015.66 1015.94 1016.18 1016.38 1016.62 1016.90 1017.14 1017.38 1017.58 1017.78 1017.98 1018.14 1018.26 1018.34 1018.38 1018.38 1018.38 1018.46 1018.50 1018.62 1018.70 1018.86 1019.02 1019.22 1019.42 1019.54 1019.58 1019.70 1019.74 1019.78 1019.86 1019.94 1020.02 1020.06 1020.18 1020.18 1020.18 1020.22 1020.30 1020.46 1020.62 1020.74 1020.78 1020.82 1020.82 1020.86 1020.82 1020.78 1020.78 1020.78 1020.74 1020.70 1020.66 1020.62 1020.62 1020.62
1012.62 1012.90 1013.14 1013.38 1013.62 1013.94 1014.26 1014.58 1014.82 1015.02 1015.22 1015.42 1015.62 1015.90 1016.14 1016.38 1016.62 1016.90 1017.14 1017.38 1017.58 1017.78 1017.94 1018.06 1018.18 1018.30 1018.34 1018.38 1018.42 1018.46 1018.58 1018.62 1018.74 1018.82 1018.94 1019.10 1019.26 1019.42 1019.54 1019.62 1019.74 1019.78 1019.82 1019.90 1019.94 1020.02 1020.10 1020.18 1020.18 1020.22 1020.26 1020.30 1020.50 1020.62 1020.74 1020.78 1020.82 1020.82 1020.86 1020.82 1020.78 1020.74 1020.74 1020.70 1020.62 1020.62 1020.62 1020.62 1020.62
1013.02 1013.22 1013.46 1013.74 1014.02 1014.34 1014.66 1014.94 1015.18 1015.34 1015.54 1015.70 1015.90 1016.18 1016.42 1016.70 1017.02 1017.26 1017.46 1017.58 1017.78 1017.94 1018.10 1018.18 1018.26 1018.34 1018.46 1018.46 1018.54 1018.62 1018.66 1018.74 1018.82 1018.94 1019.02 1019.18 1019.30 1019.46 1019.58 1019.66 1019.74 1019.86 1019.90 1019.90 1020.02 1020.06 1020.10 1020.18 1020.22 1020.30 1020.30 1020.34 1020.54 1020.66 1020.74 1020.78 1020.82 1020.82 1020.82 1020.82 1020.74 1020.74 1020.70 1020.66 1020.62 1020.62 1020.58 1020.62 1020.62
1013.46 1013.62 1013.86 1014.14 1014.46 1014.74 1015.02 1015.30 1015.46 1015.66 1015.86 1016.02 1016.26 1016.50 1016.74 1017.02 1017.26 1017.46 1017.66 1017.82 1017.94 1018.06 1018.18 1018.22 1018.30 1018.38 1018.46 1018.54 1018.62 1018.66 1018.74 1018.82 1018.90 1019.02 1019.10 1019.22 1019.38 1019.50 1019.62 1019.74 1019.82 1019.90 1019.90 1019.98 1020.02 1020.06 1020.14 1020.18 1020.26 1020.30 1020.30 1020.38 1020.58 1020.74 1020.78 1020.82 1020.78 1020.78 1020.78 1020.74 1020.74 1020.70 1020.66 1020.66 1020.62 1020.62 1020.62 1020.62 1020.62
1013.82 1014.02 1014.30 1014.54 1014.82 1015.10 1015.34 1015.58 1015.78 1015.98 1016.18 1016.34 1016.62 1016.86 1017.06 1017.26 1017.38 1017.58 1017.74 1017.94 1018.02 1018.18 1018.22 1018.26 1018.34 1018.42 1018.50 1018.58 1018.62 1018.74 1018.82 1018.90 1019.02 1019.10 1019.22 1019.38 1019.46 1019.62 1019.74 1019.86 1019.90 1019.90 1019.90 1019.98 1020.02 1020.14 1020.18 1020.22 1020.26 1020.30 1020.34 1020.42 1020.62 1020.74 1020.78 1020.82 1020.82 1020.82 1020.82 1020.78 1020.74 1020.66 1020.62 1020.66 1020.62 1020.62 1020.62 1020.58 1020.50
1014.18 1014.30 1014.58 1014.90 1015.18 1015.42 1015.66 1015.90 1016.10 1016.30 1016.50 1016.70 1016.90 1017.06 1017.22 1017.34 1017.46 1017.58 1017.78 1017.94 1018.10 1018.22 1018.30 1018.42 1018.46 1018.50 1018.58 1018.66 1018.74 1018.78 1018.90 1018.98 1019.10 1019.22 1019.38 1019.50 1019.58 1019.74 1019.86 1019.98 1020.02 1019.94 1019.94 1020.02 1020.10 1020.18 1020.26 1020.30 1020.30 1020.30 1020.38 1020.54 1020.70 1020.78 1020.82 1020.86 1020.86 1020.86 1020.86 1020.78 1020.74 1020.70 1020.66 1020.66 1020.62 1020.62 1020.62 1020.58 1020.46
1014.58 1014.62 1014.74 1015.06 1015.42 1015.74 1016.02 1016.26 1016.46 1016.62 1016.78 1016.90 1017.02 1017.18 1017.30 1017.46 1017.58 1017.70 1017.82 1017.98 1018.14 1018.26 1018.42 1018.50 1018.58 1018.62 1018.70 1018.78 1018.82 1018.90 1019.02 1019.10 1019.26 1019.38 1019.50 1019.58 1019.70 1019.86 1019.98 1020.06 1020.10 1020.02 1020.02 1020.02 1020.10 1020.18 1020.22 1020.30 1020.30 1020.30 1020.42 1020.62 1020.74 1020.82 1020.82 1020.86 1020.90 1020.90 1020.90 1020.82 1020.78 1020.74 1020.70 1020.66 1020.62 1020.62 1020.58 1020.50 1020.46
1014.94 1014.90 1015.02 1015.22 1015.58 1015.98 1016.30 1016.50 1016.66 1016.74 1016.90 1017.02 1017.14 1017.26 1017.38 1017.54 1017.70 1017.86 1017.94 1018.02 1018.18 1018.34 1018.46 1018.54 1018.62 1018.74 1018.78 1018.90 1018.94 1019.06 1019.18 1019.26 1019.34 1019.46 1019.58 1019.62 1019.74 1019.90 1020.02 1020.14 1020.18 1020.18 1020.14 1020.06 1020.14 1020.18 1020.26 1020.30 1020.30 1020.30 1020.46 1020.62 1020.74 1020.82 1020.90 1020.90 1020.90 1020.90 1020.86 1020.86 1020.82 1020.78 1020.74 1020.70 1020.62 1020.62 1020.54 1020.46 1020.34
1015.30 1015.30 1015.30 1015.42 1015.74 1016.06 1016.38 1016.58 1016.70 1016.82 1016.98 1017.14 1017.30 1017.42 1017.54 1017.66 1017.86 1017.98 1018.06 1018.14 1018.26 1018.42 1018.54 1018.62 1018.70 1018.78 1018.86 1018.94 1019.02 1019.14 1019.22 1019.30 1019.42 1019.54 1019.66 1019.74 1019.86 1019.98 1020.10 1020.18 1020.26 1020.30 1020.26 1020.14 1020.14 1020.18 1020.26 1020.30 1020.30 1020.30 1020.46 1020.66 1020.74 1020.86 1020.90 1020.90 1020.90 1020.90 1020.86 1020.86 1020.86 1020.82 1020.74 1020.74 1020.66 1020.62 1020.54 1020.46 1020.26
1015.50 1015.54 1015.54 1015.58 1015.82 1016.14 1016.46 1016.66 1016.86 1017.02 1017.18 1017.34 1017.46 1017.58 1017.70 1017.82 1017.94 1018.06 1018.18 1018.22 1018.30 1018.42 1018.54 1018.66 1018.74 1018.86 1018.90 1019.02 1019.10 1019.22 1019.30 1019.38 1019.46 1019.58 1019.74 1019.86 1019.94 1020.02 1020.10 1020.22 1020.30 1020.38 1020.30 1020.18 1020.18 1020.18 1020.22 1020.30 1020.30 1020.30 1020.46 1020.66 1020.78 1020.86 1020.90 1020.90 1020.90 1020.90 1020.90 1020.90 1020.90 1020.86 1020.78 1020.74 1020.66 1020.62 1020.54 1020.46 1020.26
1015.74 1015.78 1015.82 1015.90 1016.06 1016.30 1016.62 1016.90 1017.14 1017.30 1017.42 1017.50 1017.62 1017.74 1017.82 1017.90 1018.02 1018.14 1018.22 1018.30 1018.38 1018.46 1018.58 1018.70 1018.82 1018.90 1018.98 1019.02 1019.18 1019.34 1019.46 1019.54 1019.62 1019.70 1019.78 1019.90 1019.94 1020.02 1020.06 1020.26 1020.38 1020.42 1020.34 1020.22 1020.18 1020.22 1020.26 1020.30 1020.30 1020.30 1020.46 1020.70 1020.74 1020.78 1020.82 1020.86 1020.90 1020.94 1020.98 1020.94 1020.94 1020.90 1020.86 1020.74 1020.70 1020.62 1020.58 1020.46 1020.34
1015.98 1016.06 1016.18 1016.26 1016.42 1016.62 1016.90 1017.14 1017.34 1017.50 1017.58 1017.62 1017.74 1017.82 1017.90 1017.98 1018.10 1018.18 1018.30 1018.38 1018.50 1018.62 1018.70 1018.82 1018.94 1019.02 1019.10 1019.18 1019.30 1019.46 1019.58 1019.70 1019.82 1019.86 1019.90 1019.90 1019.94 1020.02 1020.10 1020.26 1020.38 1020.46 1020.42 1020.30 1020.26 1020.22 1020.26 1020.30 1020.30 1020.30 1020.42 1020.62 1020.70 1020.74 1020.78 1020.86 1020.94 1021.02 1021.02 1021.02 1020.98 1020.90 1020.90 1020.82 1020.74 1020.62 1020.58 1020.50 1020.42
Thickness
5633 5635 5635 5633 5631 5630 5628 5627 5626 5624 5623 5622 5619 5616 5614 5611 5611 5609 5609 5608 5607 5607 5606 5605 5604 5603 5601 5600 5597 5595 5592 5590 5589 5589 5589 5587 5585 5582 5580 5578 5576 5574 5572 5570 5569 5569 5568 5566 5564 5562 5559 5558 5555 5553 5551 5551 5549 5548 5546 5543 5541 5539 5537 5535 5532 5530 5528 5526 5524
5630 5632 5632 5630 5629 5627 5625 5624 5623 5621 5620 5618 5616 5614 5611 5609 5608 5607 5606 5606 5605 5604 5603 5602 5601 5599 5597 5596 5594 5591 5589 5587 5587 5587 5586 5584 5582 5579 5577 5575 5573 5572 5569 5568 5566 5566 5564 5563 5561 5558 5556 5554 5552 5550 5548 5548 5546 5544 5542 5540 5538 5536 5534 5531 5530 5527 5525 5523 5521
5627 5628 5628 5627 5626 5624 5623 5622 5620 5619 5616 5614 5612 5609 5608 5606 5606 5605 5604 5603 5602 5600 5598 5597 5596 5594 5593 5591 5589 5587 5586 5584 5585 5584 5583 5581 5579 5576 5574 5572 5570 5568 5566 5565 5564 5563 5562 5560 5558 5556 5553 5551 5549 5547 5545 5544 5543 5542 5539 5537 5535 5533 5531 5529 5527 5525 5522 5520 5518
5623 5624 5625 5625 5624 5623 5622 5620 5618 5616 5613 5610 5608 5606 5604 5603 5603 5602 5601 5599 5598 5596 5595 5593 5592 5590 5588 5587 5585 5583 5582 5582 5582 5581 5579 5577 5574 5572 5570 5568 5566 5564 5563 5562 5561 5560 5559 5558 5555 5553 5550 5547 5545 5543 5542 5540 5540 5538 5536 5534 5532 5530 5528 5526 5524 5522 5520 5517 5515
5619 5621 5622 5622 5622 5621 5620 5619 5616 5613 5610 5608 5605 5602 5601 5601 5600 5600 5599 5597 5595 5593 5591 5589 5587 5585 5583 5582 5581 5580 5578 5578 5578 5577 5575 5572 5570 5568 5566 5564 5562 5560 5560 5559 5558 5557 5556 5554 5552 5549 5546 5544 5542 5540 5539 5538 5536 5535 5533 5531 5530 5528 5525 5523 5521 5519 5517 5514 5511
5616 5617 5618 5618 5618 5617 5616 5615 5613 5610 5607 5605 5602 5600 5600 5600 5599 5597 5596 5594 5592 5590 5587 5585 5583 5582 5580 5578 5577 5576 5576 5575 5575 5573 5571 5567 5565 5564 5562 5561 5559 5557 5556 5555 5555 5554 5553 5551 5548 5546 5543 5541 5539 5537 5536 5535 5533 5532 5530 5528 5526 5525 5522 5520 5518 5516 5513 5511 5508
5614 5613 5614 5613 5613 5613 5612 5611 5609 5606 5604 5602 5600 5599 5599 5599 5598 5596 5594 5591 5588 5586 5584 5582 5580 5578 5577 5575 5574 5573 5573 5572 5571 5569 5565 5562 5561 5560 5559 5558 5556 5554 5553 5552 5551 5550 5549 5547 5545 5542 5539 5537 5535 5534 5532 5531 5530 5528 5526 5523 5522 5521 5519 5517 5515 5513 5510 5507 5504
5611 5611 5610 5610 5610 5609 5608 5607 5605 5602 5600 5598 5597 5597 5597 5597 5596 5594 5591 5588 5585 5583 5581 5579 5577 5575 5574 5573 5573 5571 5570 5569 5567 5564 5561 5559 5558 5558 5556 5555 5553 5551 5550 5549 5548 5547 5545 5544 5541 5538 5536 5534 5532 5530 5529 5528 5527 5524 5522 5520 5519 5517 5515 5513 5511 5509 5506 5504 5501
5608 5608 5607 5606 5605 5605 5603 5602 5600 5599 5597 5596 5595 5595 5595 5594 5593 5591 5588 5585 5582 5580 5578 5576 5575 5573 5572 5571 5571 5569 5567 5566 5563 5561 5559 5558 5557 5555 5554 5552 5550 5549 5547 5546 5545 5544 5542 5540 5537 5535 5532 5531 5529 5527 5526 5525 5523 5521 5519 5517 5516 5513 5512 5510 5508 5506 5503 5501 5498
5605 5605 5603 5601 5601 5599 5598 5596 5595 5595 5594 5593 5592 5592 5592 5592 5590 5587 5584 5582 5579 5577 5575 5573 5572 5571 5570 5569 5567 5565 5563 5562 5560 5559 5557 5556 5555 5553 5551 5549 5548 5546 5544 5544 5542 5540 5538 5536 5533 5532 5529 5528 5525 5524 5523 5522 5520 5517 5516 5514 5512 5510 5508 5506 5504 5502 5500 5498 5496
5603 5601 5600 5598 5597 5595 5593 5591 5590 5590 5591 5590 5590 5590 5589 5588 5586 5583 5581 5578 5576 5574 5571 5570 5569 5568 5567 5565 5563 5561 5559 5558 5557 5556 5555 5554 5553 5551 5548 5546 5545 5543 5541 5540 5539 5537 5535 5532 5530 5527 5526 5524 5522 5521 5519 5517 5517 5514 5512 5510 5508 5507 5504 5502 5501 5499 5497 5495 5492
5599 5598 5596 5595 5593 5591 5589 5587 5587 5588 5588 5587 5587 5587 5585 5584 5581 5578 5576 5574 5572 5570 5568 5566 5564 5563 5562 5561 5559 5557 5555 5554 5553 5553 5552 5551 5549 5547 5544 5541 5540 5539 5538 5537 5535 5533 5531 5529 5527 5524 5522 5520 5518 5517 5516 5514 5512 5511 5509 5506 5505 5502 5500 5499 5497 5495 5493 5491 5489
5596 5594 5592 5591 5589 5588 5586 5585 5585 5585 5586 5585 5585 5583 5581 5578 5576 5573 5571 5570 5568 5565 5564 5562 5560 5558 5557 5556 5555 5553 5551 5550 5550 5549 5548 5546 5544 5542 5539 5537 5535 5535 5534 5533 5532 5529 5527 5525 5522 5520 5518 5516 5514 5513 5511 5510 5509 5507 5504 5502 5500 5498 5497 5495 5494 5492 5490 5488 5486
5591 5590 5588 5586 5584 5582 5582 5582 5582 5583 5583 5583 5582 5579 5576 5573 5570 5569 5567 5565 5564 5562 5559 5557 5556 5554 5553 5551 5550 5549 5548 5547 5546 5545 5543 5541 5539 5536 5534 5531 5531 5531 5531 5529 5528 5526 5523 5521 5519 5517 5514 5512 5511 5509 5508 5507 5505 5503 5501 5499 5497 5495 5493 5492 5490 5488 5487 5485 5483
5586 5585 5583 5581 5579 5577 5578 5578 5580 5580 5580 5579 5577 5575 5572 5569 5566 5565 5563 5562 5560 5559 5556 5555 5553 5552 5550 5549 5548 5547 5546 5544 5543 5541 5539 5536 5534 5531 5529 5528 5527 5527 5526 5526 5524 5522 5520 5518 5516 5514 5512 5509 5507 5506 5504 5503 5502 5500 5498 5496 5494 5492 5491 5489 5487 5485 5484 5482 5480
5579 5578 5576 5577 5575 5575 5575 5576 5576 5577 5576 5575 5573 5570 5567 5565 5563 5561 5560 5559 5558 5555 5554 5552 5551 5549 5548 5546 5545 5545 5543 5541 5539 5537 5535 5532 5529 5527 5525 5525 5524 5524 5523 5522 5520 5518 5516 5514 5512 5510 5508 5506 5505 5503 5502 5500 5498 5497 5495 5493 5491 5489 5488 5486 5484 5483 5481 5479 5477
5574 5573 5573 5573 5573 5573 5573 5574 5574 5573 5572 5571 5568 5566 5564 5562 5560 5559 5557 5556 5555 5553 5551 5549 5548 5547 5545 5544 5543 5541 5540 5538 5536 5533 5531 5528 5525 5524 5522 5521 5521 5521 5520 5518 5516 5514 5512 5510 5508 5507 5505 5503 5502 5500 5498 5497 5495 5493 5492 5490 5488 5487 5486 5484 5482 5480 5478 5476 5474
5571 5571 5571 5571 5571 5572 5572 5571 5571 5569 5568 5567 5564 5562 5561 5559 5558 5556 5554 5553 5551 5550 5548 5546 5545 5544 5543 5541 5540 5539 5537 5535 5532 5530 5527 5524 5523 5521 5519 5519 5519 5518 5516 5515 5512 5509 5507 5506 5504 5503 5501 5500 5498 5497 5495 5493 5492 5491 5489 5487 5485 5484 5482 5481 5479 5477 5476 5474 5472
5570 5570 5570 5570 5569 5569 5569 5568 5567 5566 5564 5562 5560 5558 5557 5556 5554 5552 5551 5549 5547 5546 5545 5543 5542 5541 5540 5538 5537 5536 5534 5531 5528 5525 5523 5522 5519 5518 5517 5517 5516 5515 5513 5511 5508 5506 5504 5503 5501 5499 5498 5497 5495 5494 5492 5490 5489 5487 5486 5484 5482 5480 5478 5476 5475 5474 5472 5470 5469
5568 5568 5568 5568 5568 5567 5566 5565 5563 5561 5560 5558 5556 5555 5553 5551 5551 5549 5547 5546 5544 5543 5541 5541 5540 5538 5537 5535 5534 5532 5529 5527 5525 5522 5520 5519 5517 5516 5515 5514 5513 5511 5508 5506 5504 5502 5500 5499 5497 5497 5495 5493 5492 5490 5488 5487 5485 5483 5481 5479 5478 5476 5475 5473 5471 5470 5468 5467 5465
5566 5566 5566 5565 5564 5563 5562 5561 5559 5557 5555 5554 5552 5551 5549 5548 5546 5546 5544 5542 5541 5540 5538 5538 5537 5535 5534 5532 5530 5527 5525 5523 5521 5519 5517 5516 5515 5513 5513 5511 5510 5507 5505 5502 5501 5499 5498 5496 5495 5494 5492 5490 5488 5487 5485 5483 5481 5480 5477 5476 5475 5473 5471 5470 5468 5466 5465 5463 5461
5563 5563 5563 5561 5560 5559 5558 5556 5554 5553 5552 5550 5548 5547 5546 5544 5543 5542 5540 5538 5538 5536 5535 5534 5533 5532 5530 5528 5526 5523 5520 5518 5517 5516 5515 5513 5512 5511 5510 5508 5506 5503 5501 5499 5497 5496 5494 5493 5492 5490 5488 5487 5485 5483 5482 5480 5477 5476 5475 5473 5472 5469 5468 5466 5464 5463 5461 5459 5457
5560 5560 5559 5558 5557 5555 5553 5552 5550 5549 5548 5546 5545 5543 5542 5540 5539 5537 5536 5535 5534 5532 5531 5530 5529 5528 5526 5524 5522 5519 5517 5514 5513 5512 5511 5510 5509 5508 5507 5505 5502 5499 5497 5495 5494 5492 5491 5490 5488 5487 5485 5483 5481 5480 5478 5476 5474 5473 5471 5469 5467 5465 5464 5462 5461 5459 5457 5455 5453
5557 5557 5555 5554 5552 5551 5550 5548 5547 5545 5543 5542 5541 5540 5539 5537 5535 5533 5532 5531 5530 5529 5527 5526 5524 5522 5521 5519 5517 5515 5513 5511 5510 5509 5509 5508 5507 5505 5503 5500 5499 5496 5495 5493 5492 5490 5488 5487 5485 5483 5482 5480 5478 5477 5475 5473 5471 5469 5467 5465 5463 5462 5460 5459 5457 5455 5453 5452 5449
5554 5552 5552 5550 5548 5547 5546 5545 5543 5542 5540 5539 5538 5537 5535 5532 5531 5530 5530 5528 5526 5524 5522 5520 5519 5517 5516 5514 5513 5512 5510 5509 5508 5507 5507 5505 5504 5502 5499 5497 5495 5493 5492 5490 5489 5488 5486 5485 5482 5481 5478 5477 5475 5473 5471 5470 5468 5465 5463 5462 5460 5458 5456 5454 5453 5451 5450 5447 5445
5549 5548 5547 5546 5545 5544 5542 5541 5540 5538 5537 5535 5534 5532 5531 5529 5528 5527 5525 5524 5522 5520 5518 5517 5514 5513 5511 5510 5509 5509 5508 5507 5507 5506 5505 5503 5501 5498 5496 5494 5492 5490 5489 5488 5487 5485 5484 5482 5480 5477 5475 5474 5472 5470 5468 5465 5463 5462 5459 5458 5456 5454 5452 5450 5448 5446 5445 5443 5441
5545 5544 5543 5542 5541 5540 5538 5537 5536 5534 5533 5531 5529 5528 5527 5526 5525 5523 5522 5520 5518 5517 5515 5513 5510 5509 5508 5507 5506 5506 5506 5505 5505 5504 5502 5500 5497 5495 5493 5491 5489 5487 5486 5486 5484 5482 5480 5479 5477 5475 5473 5471 5468 5466 5464 5461 5460 5458 5456 5454 5452 5450 5448 5446 5443 5441 5440 5438 5436
5541 5540 5539 5538 5537 5536 5535 5534 5532 5531 5529 5527 5526 5524 5523 5522 5520 5519 5518 5516 5515 5513 5511 5509 5507 5506 5505 5505 5505 5503 5503 5503 5502 5501 5499 5496 5494 5492 5490 5488 5487 5485 5484 5482 5481 5479 5477 5475 5473 5472 5470 5467 5465 5462 5460 5458 5456 5454 5452 5450 5448 5446 5444 5442 5440 5437 5435 5434 5432
5537 5536 5535 5534 5533 5532 5532 5530 5529 5527 5526 5525 5523 5522 5519 5518 5517 5516 5514 5513 5512 5509 5507 5505 5504 5503 5503 5502 5502 5501 5501 5500 5499 5497 5495 5493 5491 5489 5487 5485 5484 5482 5481 5479 5478 5475 5474 5472 5470 5468 5467 5464 5461 5459 5456 5455 5452 5450 5448 5446 5444 5442 5440 5438 5436 5434 5432 5430 5428
5533 5532 5531 5530 5530 5528 5527 5526 5524 5523 5522 5521 5520 5518 5517 5515 5514 5513 5511 5509 5507 5505 5504 5503 5502 5501 5500 5500 5499 5499 5498 5496 5495 5493 5492 5490 5488 5486 5484 5482 5481 5479 5477 5476 5474 5472 5470 5468 5466 5464 5463 5461 5458 5455 5453 5451 5448 5446 5444 5442 5440 5438 5436 5434 5432 5431 5429 5427 5424
5529 5527 5527 5526 5525 5524 5523 5521 5519 5518 5518 5518 5517 5515 5513 5512 5510 5508 5507 5505 5503 5502 5501 5500 5499 5498 5497 5497 5497 5495 5494 5493 5492 5491 5489 5487 5485 5483 5481 5479 5477 5476 5474 5473 5470 5468 5467 5464 5462 5461 5459 5457 5455 5452 5449 5447 5444 5442 5440 5438 5436 5434 5433 5431 5429 5427 5425 5422 5420
5524 5523 5522 5521 5520 5519 5517 5516 5515 5515 5515 5514 5513 5512 5509 5507 5506 5504 5503 5502 5501 5499 5498 5497 5496 5496 5495 5494 5493 5492 5491 5490 5489 5488 5486 5484 5482 5480 5478 5476 5474 5472 5471 5469 5467 5465 5463 5461 5459 5458 5456 5454 5451 5448 5445 5443 5441 5439 5437 5435 5433 5431 5429 5427 5425 5423 5421 5418 5416
5519 5519 5518 5516 5515 5514 5513 5512 5511 5511 5511 5510 5509 5507 5505 5504 5503 5502 5501 5500 5498 5497 5496 5495 5494 5493 5492 5491 5490 5490 5488 5487 5486 5484 5483 5481 5479 5477 5474 5472 5471 5469 5467 5465 5463 5461 5460 5458 5456 5454 5453 5450 5447 5444 5441 5439 5437 5435 5433 5431 5429 5427 5425 5423 5421 5419 5416 5414 5412
5517 5516 5515 5513 5512 5510 5509 5509 5508 5508 5507 5506 5505 5503 5502 5502 5501 5501 5499 5497 5496 5495 5494 5493 5492 5491 5490 5489 5488 5487 5485 5484 5482 5481 5479 5477 5475 5473 5471 5469 5467 5466 5464 5461 5460 5458 5457 5455 5453 5451 5449 5446 5443 5440 5438 5435 5433 5431 5429 5427 5425 5424 5421 5419 5417 5414 5412 5410 5408
5516 5516 5515 5512 5510 5507 5506 5505 5504 5504 5503 5502 5501 5501 5500 5500 5499 5498 5497 5495 5493 5492 5491 5490 5489 5488 5487 5486 5485 5483 5482 5480 5479 5477 5475 5473 5471 5469 5467 5465 5463 5462 5461 5459 5457 5455 5453 5451 5450 5447 5445 5442 5439 5436 5434 5432 5429 5427 5425 5423 5421 5419 5417 5415 5413 5410 5409 5406 5404
5513 5515 5514 5512 5509 5506 5504 5502 5502 5501 5500 5500 5499 5499 5498 5497 5496 5495 5493 5492 5491 5489 5488 5487 5486 5485 5483 5482 5481 5479 5478 5477 5475 5473 5472 5470 5468 5465 5463 5461 5459 5459 5457 5456 5454 5452 5450 5448 5446 5444 5441 5438 5435 5432 5430 5428 5425 5423 5421 5419 5417 5415 5412 5411 5409 5406 5404 5403 5400
5507 5508 5510 5511 5508 5505 5502 5501 5500 5499 5498 5497 5496 5496 5495 5494 5492 5491 5490 5489 5488 5487 5486 5484 5483 5481 5480 5479 5477 5476 5474 5473 5471 5469 5467 5467 5464 5462 5460 5458 5456 5454 5454 5453 5450 5448 5446 5444 5442 5440 5437 5434 5431 5429 5426 5424 5421 5419 5417 5415 5412 5410 5409 5406 5405 5403 5401 5399 5397
5503 5504 5505 5506 5504 5501 5499 5497 5497 5496 5495 5494 5493 5493 5492 5490 5489 5487 5487 5486 5485 5484 5483 5481 5479 5478 5477 5476 5474 5472 5471 5470 5468 5467 5465 5463 5461 5459 5457 5455 5452 5451 5450 5449 5447 5445 5443 5441 5439 5437 5434 5430 5427 5425 5422 5420 5418 5415 5414 5411 5409 5407 5405 5403 5401 5398 5396 5394 5393
5501 5501 5501 5502 5500 5498 5496 5495 5494 5493 5492 5492 5490 5489 5488 5487 5486 5485 5484 5483 5482 5481 5480 5478 5476 5475 5473 5473 5471 5469 5468 5466 5465 5463 5461 5459 5457 5456 5453 5451 5449 5447 5446 5445 5444 5442 5439 5437 5435 5433 5430 5426 5424 5421 5419 5416 5414 5412 5409 5407 5405 5402 5401 5399 5397 5395 5391 5390 5389
5499 5498 5498 5498 5497 5495 5493 5493 5491 5490 5489 5488 5487 5486 5485 5485 5484 5483 5482 5480 5479 5478 5476 5475 5473 5472 5471 5470 5468 5466 5465 5463 5461 5459 5458 5456 5453 5452 5450 5448 5445 5443 5443 5442 5440 5438 5436 5434 5432 5430 5426 5423 5421 5418 5415 5413 5410 5408 5406 5403 5401 5399 5396 5394 5392 5390 5387 5385 5383
5496 5496 5495 5495 5493 5493 5491 5490 5488 5487 5486 5485 5484 5484 5483 5482 5481 5480 5478 5477 5476 5475 5474 5472 5470 5469 5467 5466 5464 5462 5460 5458 5457 5455 5454 5452 5450 5449 5447 5444 5442 5440 5439 5438 5437 5435 5432 5430 5428 5426 5424 5420 5417 5415 5412 5410 5407 5404 5401 5399 5397 5394 5392 5390 5388 5385 5383 5381 5378